User: anonymous   Login
Location: Unspecified
(0.0000°N, 0.0000°E)
Time: 20:45:51
(UTC+00:00)
Language:

DOVE 4 - Orbit

View from above orbital plane
View from above orbital plane
View from above satellite
View from above satellite

Ground track
Ground track

The orbit data is extracted from the following two-line orbital elements,

1 39430U 13066Q   22022.61261536  .00000574  00000-0  11126-3 0  9993
2 39430  97.8165 298.1188 0150702 144.0433 217.1016 14.59817309435016
Epoch (UTC): 22 January 2022 14:42:09
Eccentricity: 0.0150702
inclination: 97.8165°
perigee height: 587 km
apogee height: 800 km
right ascension of ascending node: 298.1188°
argument of perigee: 144.0433°
revolutions per day: 14.59817309
mean anomaly at epoch: 217.1016°
orbit number at epoch: 43501

The dashed part of the orbit path shows where the satellite is in the earth's shadow,  

DLR